This demonstration page uses our WeatherBlox Daily Observations layout. Learn more.

Left ArrowRight Arrow

44.89941, -97.11507

Hourly Observations for June 24, 2016

Temp ( °F °C ) Dew Point ( °F °C ) Humidity (%) Winds ( mph kmh ) Pressure ( in mb ) Visibility ( mi km ) Precip ( " mm )
12:53 am 00:53 Clear 65 18.3 52 11.1 63 63 SE 8 13 30.00 1016 10 16 0.00 0.00
1:53 am 01:53 Clear 64 17.8 53 11.7 68 68 SSE 7 11 29.99 1016 10 16 0.00 0.00
2:53 am 02:53 Clear 64 17.8 53 11.7 68 68 SSE 13 20 29.97 1015 10 16 0.00 0.00
3:53 am 03:53 Clear 62 16.7 54 12.2 75 75 SSE 12 19 29.96 1014 10 16 0.00 0.00
4:53 am 04:53 Clear 62 16.7 56 13.3 80 80 SSE 13 20 29.95 1014 10 16 0.00 0.00
5:53 am 05:53 Mostly Cloudy 62 16.7 57 13.9 84 84 SSE 12 19 29.95 1014 10 16 0.00 0.00
6:53 am 06:53 Cloudy 64 17.8 57 13.9 78 78 SSE 14 22 29.96 1015 10 16 0.00 0.00
7:53 am 07:53 Cloudy with Light Rain 65 18.3 56 13.3 73 73 SSE 15 24 29.95 1014 10 16 0.00 0.03
8:53 am 08:53 Sunny with Light Rain 69 20.6 57 13.9 66 66 S 20 31 29.93 1014 10 16 0.00 0.03
9:53 am 09:53 Sunny 74 23.3 59 15 60 60 SSE 20 31 29.90 1013 10 16 0.00 0.03
10:53 am 10:53 Sunny 78 25.6 60 15.6 54 54 SSE 22 35 29.89 1012 10 16 0.00 0.00
11:53 am 11:53 Sunny 82 27.8 62 16.7 51 51 SSE 21 33 29.88 1012 10 16 0.00 0.00
12:53 pm 12:53 Sunny 85 29.4 63 17.2 48 48 S 18 30 29.87 1012 10 16 0.00 0.00
1:53 pm 13:53 Sunny 87 30.6 63 17.2 45 45 SSE 20 31 29.84 1010 10 16 0.00 0.00
2:53 pm 14:53 Sunny 88 31.1 64 17.8 45 45 S 21 33 29.82 1010 10 16 0.00 0.00
3:53 pm 15:53 Sunny 88 31.1 64 17.8 45 45 S 22 35 29.81 1009 10 16 0.00 0.00
4:53 pm 16:53 Sunny 88 31.1 65 18.3 46 46 SSE 21 33 29.80 1009 10 16 0.00 0.00
5:53 pm 17:53 Sunny 88 31.1 65 18.3 46 46 SSE 23 37 29.77 1008 10 16 0.00 0.00
6:53 pm 18:53 Sunny 85 29.4 66 18.9 53 53 SSE 26 43 29.76 1008 10 16 0.00 0.00
7:53 pm 19:53 Sunny 83 28.3 66 18.9 57 57 SSE 18 30 29.76 1008 10 16 0.00 0.00
8:53 pm 20:53 Sunny 81 27.2 67 19.4 62 62 SSE 16 26 29.75 1008 10 16 0.00 0.00
9:53 pm 21:53 Clear 79 26.1 68 20 69 69 SSE 17 28 29.73 1007 10 16 0.00 0.00
10:53 pm 22:53 Clear 78 25.6 70 21.1 76 76 SSE 17 28 29.75 1007 10 16 0.00 0.00
11:53 pm 23:53 Clear 79 26.1 71 21.7 77 77 S 17 28 29.73 1007 10 16 0.00 0.00

Powered by AerisWeather